Regional Weather Roundup
Issued by NWS Bismarck, ND

Home | Current Version | Previous Version | Text Only | Print | Product List | Glossary On
Versions: 1 2 3 4 5 6 7 8 9 10 11 12 13 14 15 16 17 18 19 20 21 22 23 24 25 26 27 28 29 30 31 32 33 34 35 36 37 38 39 40 41 42 43 44 45 46 47 48 49 50
000
ASUS43 KBIS 290510
RWRBIS

NWR BROADCAST TEXT
NATIONAL WEATHER SERVICE BISMARCK ND
1200 AM CDT TUE JUL 29 2014

NOTE: "FAIR" INDICATES FEW OR NO CLOUDS BELOW 12,000 FEET WITH NO
SIGNIFICANT WEATHER AND/OR OBSTRUCTIONS TO VISIBILITY.


CITY           SKY/WX    TMP DP  RH WIND       PRES   REMARKS
WILLISTON      CLEAR     67  55  65 CALM      30.22S
MINOT          CLEAR     63  55  75 S3        30.22S
MINOT AFB      CLEAR     60  57  89 S5        30.21F
BISMARCK       CLEAR     59  52  77 E3        30.24S
DICKINSON      PTCLDY    58  52  80 SE8       30.24F
GARRISON         N/A     57  53  86 CALM      30.23F
HETTINGER ARPT CLEAR     59  50  72 SE6       30.27F
JAMESTOWN      CLEAR     56  52  86 CALM      30.22S
CARRINGTON     FAIR      54  54 100 CALM      30.24S
CROSBY           N/A     57  57 100 CALM      30.23S
HARVEY         FAIR      54  54 100 CALM      30.23S
HAZEN          FAIR      54  50  87 W3        30.24S
LINTON         FAIR      52  50  93 E6        30.24S
MANDAN         FAIR      57  52  82 SW5       30.25S
RUGBY          FAIR      57  55  94 CALM      30.22S
STANLEY        FAIR      59  59 100 S5        30.24S
TIOGA          FAIR      55  55 100 E3        30.27S
WATFORD CITY   FAIR      59  54  82 CALM      30.21S
$$

CITY           SKY/WX    TMP DP  RH WIND       PRES   REMARKS
GRAND FORKS    CLEAR     56  54  93 W7        30.18S
GRAND FORKS AF CLEAR     56  56 100 W2        30.19F
DEVILS LAKE    CLEAR     59  54  82 CALM      30.20S
FARGO          CLEAR     58  53  84 W5        30.19S
CANDO          FAIR      55  54  94 W3        30.22S
CAVALIER       FAIR      57  54  88 W3        30.18F
GRAFTON        FAIR      59  57  94 W5        30.18S
GWINNER        CLEAR     57  55  94 W6        30.22F
LANGDON        MOCLDY    50  48  93 SW3       30.21F
ROLLA          FAIR      50  50 100 W3        30.24S
WALHALLA         N/A     55  55 100 CALM        N/A
$$

CITY           SKY/WX    TMP DP  RH WIND       PRES   REMARKS
ABERDEEN       CLEAR     51  50  96 SW3       30.23S
MOBRIDGE       CLEAR     58  51  78 CALM      30.21F
BUFFALO          N/A     63  52  67 E10       30.20F
RAPID CITY     CLEAR     61  51  70 SE3       30.28R
GLASGOW        CLEAR     70  50  49 E13       30.20S
SIDNEY         CLEAR     66  54  63 S3        30.22S
WOLF POINT     CLEAR     68  49  50 NE7       30.20F
GLENDIVE       CLEAR     70  52  52 SE8       30.23F
MILES CITY     PTCLDY    74  51  44 E7        30.20S
BAKER          CLEAR     60  53  77 SE8       30.26S
$$

CITY           SKY/WX    TMP DP  RH WIND       PRES   REMARKS
BILLINGS       CLOUDY    78  45  30 NE10      30.20R
GREAT FALLS    MOCLDY    76  45  33 N9        30.15S
REGINA         CLEAR     64  61  88 S7        30.22F
ESTEVAN        CLEAR     61  57  88 SE3       30.23S
$$




USA.gov is the U.S. government's official web portal to all federal, state and local government web resources and services.